2023/08/06 00:00:00, 1.1,28.0
2023/08/06 00:10:00, 0.8,28.2
2023/08/06 00:20:00, 1.1,27.8
2023/08/06 00:30:00, 0.2,27.7
2023/08/06 00:40:00, 1.2,27.7
2023/08/06 00:50:00, 0.5,27.7
2023/08/06 01:00:00, 0.0,27.7
2023/08/06 01:10:00, 1.0,27.5
2023/08/06 01:20:00, 0.8,27.6
2023/08/06 01:30:00, 0.4,27.5
2023/08/06 01:40:00, 1.3,27.2
2023/08/06 01:50:00, 1.4,27.1
2023/08/06 02:00:00, 1.3,27.2
2023/08/06 02:10:00, 1.8,26.8
2023/08/06 02:20:00, 0.8,27.0
2023/08/06 02:30:00, 0.8,27.0
2023/08/06 02:40:00, 0.3,26.9
2023/08/06 02:50:00, 0.3,26.8
2023/08/06 03:00:00, 0.6,27.0
2023/08/06 03:10:00, 0.9,26.8
2023/08/06 03:20:00, 1.2,26.9
2023/08/06 03:30:00, 0.7,27.0
2023/08/06 03:40:00, 0.0,26.8
2023/08/06 03:50:00, 0.0,26.9
2023/08/06 04:00:00, 0.4,26.8
2023/08/06 04:10:00, 0.0,26.9
2023/08/06 04:20:00, 0.3,26.9
2023/08/06 04:30:00, 0.3,26.9
2023/08/06 04:40:00, 0.8,26.6
2023/08/06 04:50:00, 2.0,25.9
2023/08/06 05:00:00, 3.3,25.9
2023/08/06 05:10:00, 1.5,25.8
2023/08/06 05:20:00, 1.5,25.6
2023/08/06 05:30:00, 1.3,25.3
2023/08/06 05:40:00, 1.6,25.4
2023/08/06 05:50:00, 1.7,25.3
2023/08/06 06:00:00, 1.8,25.4
2023/08/06 06:10:00, 2.1,25.4
2023/08/06 06:20:00, 2.1,25.8
2023/08/06 06:30:00, 1.7,26.4
2023/08/06 06:40:00, 1.8,26.7
2023/08/06 06:50:00, 1.9,26.8
2023/08/06 07:00:00, 1.9,27.2
2023/08/06 07:10:00, 2.4,27.7
2023/08/06 07:20:00, 2.2,29.0
2023/08/06 07:30:00, 1.9,30.0
2023/08/06 07:40:00, 2.6,30.7
2023/08/06 07:50:00, 3.6,31.4
2023/08/06 08:00:00, 4.3,31.8
2023/08/06 08:10:00, 6.9,32.5
2023/08/06 08:20:00, 7.6,32.6
2023/08/06 08:30:00, 6.0,33.6
2023/08/06 08:40:00, 4.2,33.9
2023/08/06 08:50:00, 3.3,35.3
2023/08/06 09:00:00, 2.3,35.1
2023/08/06 09:10:00, 1.1,35.8
2023/08/06 09:20:00, 0.8,37.1
2023/08/06 09:30:00, 0.6,36.1
2023/08/06 09:40:00, 0.2,36.8
2023/08/06 09:50:00, 0.4,36.3
2023/08/06 10:00:00, 0.4,35.7
2023/08/06 10:10:00, 0.0,36.4
2023/08/06 10:20:00, 0.0,37.1
2023/08/06 10:30:00, 0.0,36.4
2023/08/06 10:40:00, 0.0,36.6
2023/08/06 10:50:00, 0.0,35.6
2023/08/06 11:00:00, 0.0,36.8
2023/08/06 11:10:00, 0.0,35.9
2023/08/06 11:20:00, 0.0,37.2
2023/08/06 11:30:00, 0.0,35.9
2023/08/06 11:40:00, 0.0,35.5
2023/08/06 11:50:00, 0.0,37.5
2023/08/06 12:00:00, 0.0,35.1
2023/08/06 12:10:00, 0.0,37.2
2023/08/06 12:20:00, 0.0,37.0
2023/08/06 12:30:00, 1.2,36.4
2023/08/06 12:40:00, 0.4,36.7
2023/08/06 12:50:00, 1.4,36.7
2023/08/06 13:00:00, 1.9,36.5
2023/08/06 13:10:00, 1.3,36.9
2023/08/06 13:20:00, 1.2,36.9
2023/08/06 13:30:00, 2.3,38.5
2023/08/06 13:40:00, 1.8,37.8
2023/08/06 13:50:00, 0.5,39.5
2023/08/06 14:00:00, 0.0,39.2
2023/08/06 14:10:00, 0.0,40.2
2023/08/06 14:20:00, 0.1,38.4
2023/08/06 14:30:00, 0.5,37.5
2023/08/06 14:40:00, 0.0,39.1
2023/08/06 14:50:00, 0.0,39.4
2023/08/06 15:00:00, 0.0,38.9
2023/08/06 15:10:00, 0.0,38.7
2023/08/06 15:20:00, 0.5,39.5
2023/08/06 15:30:00, 0.7,39.5
2023/08/06 15:40:00, 0.5,39.6
2023/08/06 15:50:00, 0.1,36.1
2023/08/06 16:00:00, 0.0,39.6
2023/08/06 16:10:00, 0.0,36.1
2023/08/06 16:20:00, 0.0,39.5
2023/08/06 16:30:00, 0.0,35.7
2023/08/06 16:40:00, 0.0,35.2
2023/08/06 16:50:00, 0.0,36.3
2023/08/06 17:00:00, 0.0,36.7
2023/08/06 17:10:00, 0.0,35.7
2023/08/06 17:20:00, 0.0,33.6
2023/08/06 17:30:00, 1.5,30.3
2023/08/06 17:40:00, 3.1,26.2
2023/08/06 17:50:00, 3.0,25.5
2023/08/06 18:00:00, 1.1,25.5
2023/08/06 18:10:00, 0.1,24.9
2023/08/06 18:20:00, 0.2,25.1
2023/08/06 18:30:00, 0.0,25.5
2023/08/06 18:40:00, 0.0,25.0
2023/08/06 18:50:00, 0.0,25.4
2023/08/06 19:00:00, 0.0,25.2
2023/08/06 19:10:00, 0.0,25.2
2023/08/06 19:20:00, 0.0,25.1
2023/08/06 19:30:00, 0.0,24.6
2023/08/06 19:40:00, 0.0,24.8
2023/08/06 19:50:00, 0.0,24.7
2023/08/06 20:00:00, 0.0,24.7
2023/08/06 20:10:00, 0.0,24.4
2023/08/06 20:20:00, 0.0,24.4
2023/08/06 20:30:00, 0.0,24.3
2023/08/06 20:40:00, 0.0,24.6
2023/08/06 20:50:00, 0.0,24.4
2023/08/06 21:00:00, 1.9,24.3
2023/08/06 21:10:00, 2.0,24.3
2023/08/06 21:20:00, 2.3,24.3
2023/08/06 21:30:00, 2.7,24.3
2023/08/06 21:40:00, 2.6,24.3
2023/08/06 21:50:00, 2.4,24.6
2023/08/06 22:00:00, 2.2,24.4
2023/08/06 22:10:00, 2.1,24.5
2023/08/06 22:20:00, 1.5,24.3
2023/08/06 22:30:00, 1.4,24.0
2023/08/06 22:40:00, 1.0,24.3
2023/08/06 22:50:00, 0.8,24.5
2023/08/06 23:00:00, 0.6,24.4
2023/08/06 23:10:00, 0.5,24.4
2023/08/06 23:20:00, 0.5,24.4
2023/08/06 23:30:00, 0.6,24.2
2023/08/06 23:40:00, 0.5,24.7
2023/08/06 23:50:00, 0.5,24.4
